Weather History for Hettinger, ND

Change the Weather History Date:

Monday, November 7, 2011

  Actual Average Record
Temperature  
Mean Temperature 28 °F -  
Max Temperature 45 °F 45 °F 82 °F (1999)
Min Temperature 10 °F 21 °F 0 °F (2003)
Degree Days  
Heating Degree Days 37 32  
Month to date heating degree days 213 212  
Since 1 July heating degree days 1009 1267  
Moisture  
Dew Point 11 °F    
Average Humidity 57    
Maximum Humidity 80    
Minimum Humidity 25    
Precipitation  
Precipitation 0.00 in 0.03 in 0.05 in (1998)
Month to date precipitation T 0.26  
Year to date precipitation 15.64 15.45  
Sea Level Pressure  
Sea Level Pressure 30.17 in    
Wind  
Wind Speed 5 mph (West)    
Max Wind Speed 16 mph    
Max Gust Speed 21 mph    
Visibility 10 miles    
Events      
T = Trace of Precipitation, MM = Missing Value Source: NWS Daily Summary

Daily Weather History Graph

Daily Weather History Graph

Search for Another Location

Airport:

Trip Planner

Search our weather history database for the weather conditions in past years. The results will help you decide how hot, cold, wet, or windy it might be!

Date:

Astronomy

Nov. 07, 2011 Rise Set
Actual Time 6:39 AM MST 4:28 PM MST
Civil Twilight 6:07 AM MST 5:00 PM MST
Nautical Twilight 5:32 AM MST 5:35 PM MST
Astronomical Twilight 4:57 AM MST 6:10 PM MST
Moon 2:46 PM MST (11/7) 3:37 AM MST (11/7)
Length of Visible Light 10h 52m
Length of Day
9h 49m
Waxing Gibbous, 92% of the Moon is Illuminated
Nov 7
Waxing Gibbous
Nov 10
Full
Nov 18
Last Quarter
Nov 24
New
Dec 2
First Quarter

Hourly Weather History & Observations

Time (MST) Temp. Windchill Dew Point Humidity Pressure Visibility Wind Dir Wind Speed Gust Speed Precip Events Conditions
12:53 AM 23.0 °F 11.1 °F 15.1 °F 72% 30.07 in 10.0 mi West 12.7 mph - N/A   Clear
1:53 AM 24.1 °F 13.1 °F 15.1 °F 69% 30.09 in 10.0 mi West 11.5 mph - N/A   Clear
2:53 AM 21.0 °F 10.6 °F 14.0 °F 74% 30.11 in 10.0 mi West 9.2 mph - N/A   Clear
3:53 AM 17.1 °F 5.8 °F 12.0 °F 81% 30.12 in 10.0 mi NW 9.2 mph - N/A   Clear
4:53 AM 18.0 °F 9.8 °F 12.9 °F 81% 30.14 in 10.0 mi WNW 5.8 mph - N/A   Clear
6:53 AM 15.1 °F 6.4 °F 10.0 °F 80% 30.19 in 10.0 mi West 5.8 mph - N/A   Clear
7:53 AM 21.0 °F 14.6 °F 15.1 °F 78% 30.20 in 10.0 mi WNW 4.6 mph - N/A   Clear
8:53 AM 30.0 °F 24.1 °F 16.0 °F 56% 30.21 in 10.0 mi West 5.8 mph - N/A   Clear
9:53 AM 37.0 °F 30.4 °F 14.0 °F 39% 30.21 in 10.0 mi WSW 9.2 mph - N/A   Clear
10:53 AM 39.0 °F 33.4 °F 14.0 °F 36% 30.22 in 10.0 mi SW 8.1 mph - N/A   Clear
11:53 AM 43.0 °F 37.7 °F 12.0 °F 28% 30.18 in 10.0 mi West 9.2 mph - N/A   Clear
12:53 PM 44.1 °F 38.1 °F 10.0 °F 25% 30.15 in 10.0 mi SW 11.5 mph - N/A   Clear
1:53 PM 45.0 °F 42.6 °F 10.0 °F 24% 30.14 in 10.0 mi Variable 4.6 mph - N/A   Clear
2:53 PM 45.0 °F 39.3 °F 10.9 °F 25% 30.14 in 10.0 mi WSW 11.5 mph - N/A   Clear
4:53 PM 34.0 °F - 10.0 °F 37% 30.19 in 10.0 mi Calm Calm - N/A   Clear
5:53 PM 24.1 °F - 8.1 °F 51% 30.22 in 10.0 mi Calm Calm - N/A   Clear
6:53 PM 16.0 °F 10.4 °F 6.1 °F 65% 30.25 in 10.0 mi WNW 3.5 mph - N/A   Clear
7:53 PM 19.0 °F - 8.1 °F 62% 30.23 in 10.0 mi Calm Calm - N/A   Clear
8:53 PM 19.0 °F - 8.1 °F 62% 30.22 in 10.0 mi Calm Calm - N/A   Clear
9:53 PM 15.1 °F - 7.0 °F 70% 30.20 in 10.0 mi Calm Calm - N/A   Clear
11:53 PM 12.0 °F - 5.0 °F 73% 30.17 in 10.0 mi Calm Calm - N/A   Clear